STPSAT-5 (43762 NORAD) Tracking and Keplerian Element Data

This shows tracking and keplerian element data for the satellite.

Feedback or suggestion? Click here.




ElementValue
Catalog43762
NameSTPSAT-5
Epoch Orbit434
Epoch Day1.85805273
Epoch Year2019
RAAN75.75
Inclination97.766
Eccentricity0.0013728
Argument of Perigee164.573
Mean Anonmoly195.5912
Mean Motion14.9550388
Decay Rate-2.4E-07
L11 43762U 18099E 19001.85805273 -.00000024 00000-0 31175-5 0 9997
L22 43762 97.7660 75.7500 0013728 164.5730 195.5912 14.95503880 4346

Live tracking and technical data element details for STPSAT-5 (NORAD 43762). STPSAT-5 can be tracked NOW for your location showing map with azimuth and elevation plus other details from your city location.

Track the satellite on the map from your city or location and see movement details for azimuth, elevation, latitude, longitude, range, height, and movement on the map or in text.







IsCatalogInMostPopularTable: catalog: 43762, numindb: 88
Update: records affected: 1



GetName: 43762 STPSAT-5

Hit Count: updated at: Mon, 22 Jul 2019 17:04:59 GMT